Time,TemperatureF,DewpointF,PressureIn,WindDirection,WindDirectionDegrees,WindSpeedMPH,WindSpeedGustMPH,Humidity,HourlyPrecipIn,Conditions,Clouds,dailyrainin,SoftwareType,DateUTC
2013-02-19 00:04:00,27.6,19.1,29.97,NW,307,9.0,13.0,70,0.00,,---,0.00,VWS V12.07,2013-02-19 06:04:00,
2013-02-19 00:34:00,26.9,18.4,29.98,NW,307,8.0,16.0,70,0.00,,---,0.00,VWS V12.07,2013-02-19 06:34:00,
2013-02-19 01:13:00,26.3,17.9,30.00,WNW,295,15.0,20.0,70,0.00,,---,0.00,VWS V12.07,2013-02-19 07:13:00,
2013-02-19 05:04:00,22.1,14.8,30.05,WNW,300,9.0,19.0,73,0.00,,---,0.00,VWS V12.07,2013-02-19 11:04:00,
2013-02-19 08:33:00,19.4,12.5,30.17,NW,311,6.0,15.0,74,0.00,,---,0.00,VWS V12.07,2013-02-19 14:33:00,
2013-02-19 10:03:00,18.6,11.1,30.21,NW,314,9.0,18.0,72,0.00,,---,0.00,VWS V12.07,2013-02-19 16:03:00,
2013-02-19 10:43:00,19.1,11.3,30.23,NW,314,7.0,20.0,71,0.00,,---,0.00,VWS V12.07,2013-02-19 16:43:00,
2013-02-19 11:43:00,21.0,11.8,30.24,North,10,7.0,21.0,67,0.00,,---,0.00,VWS V12.07,2013-02-19 17:43:00,
2013-02-19 12:04:00,21.3,11.7,30.25,NW,326,14.0,18.0,66,0.00,,---,0.00,VWS V12.07,2013-02-19 18:04:00,
2013-02-19 14:14:00,26.2,13.4,30.24,WNW,294,14.0,20.0,58,0.00,,---,0.00,VWS V12.07,2013-02-19 20:14:00,
2013-02-19 14:33:00,27.0,13.8,30.25,WNW,300,12.0,18.0,57,0.00,,---,0.00,VWS V12.07,2013-02-19 20:33:00,
2013-02-19 14:54:00,27.3,14.1,30.25,WNW,298,20.0,20.0,57,0.00,,---,0.00,VWS V12.07,2013-02-19 20:54:00,
2013-02-19 15:14:00,28.1,13.6,30.25,WNW,297,16.0,21.0,54,0.00,,---,0.00,VWS V12.07,2013-02-19 21:14:00,
2013-02-19 15:34:00,28.1,12.8,30.27,West,277,8.0,19.0,52,0.00,,---,0.00,VWS V12.07,2013-02-19 21:34:00,
2013-02-19 16:04:00,28.0,12.7,30.28,West,281,6.0,15.0,52,0.00,,---,0.00,VWS V12.07,2013-02-19 22:04:00,
2013-02-19 16:24:00,27.9,12.1,30.28,SW,231,14.0,21.0,51,0.00,,---,0.00,VWS V12.07,2013-02-19 22:24:00,
2013-02-19 16:54:00,28.2,12.4,30.28,NNW,333,8.0,21.0,51,0.00,,---,0.00,VWS V12.07,2013-02-19 22:54:00,
2013-02-19 17:14:00,27.7,11.5,30.29,NW,312,7.0,19.0,50,0.00,,---,0.00,VWS V12.07,2013-02-19 23:14:00,
2013-02-19 17:34:00,26.6,10.9,30.29,WNW,295,8.0,14.0,51,0.00,,---,0.00,VWS V12.07,2013-02-19 23:34:00,
2013-02-19 17:54:00,26.1,11.3,30.29,NW,306,9.0,14.0,53,0.00,,---,0.00,VWS V12.07,2013-02-19 23:54:00,
2013-02-19 18:14:00,25.7,11.4,30.30,WNW,295,6.0,12.0,54,0.00,,---,0.00,VWS V12.07,2013-02-20 00:14:00,
2013-02-19 18:33:00,25.2,11.3,30.30,WNW,290,5.0,7.0,55,0.00,,---,0.00,VWS V12.07,2013-02-20 00:33:00,
2013-02-19 19:14:00,24.3,11.3,30.30,NW,318,1.0,7.0,57,0.00,,---,0.00,VWS V12.07,2013-02-20 01:14:00,
2013-02-19 19:35:00,23.8,11.6,30.31,WNW,296,2.0,5.0,59,0.00,,---,0.00,VWS V12.07,2013-02-20 01:35:00,
2013-02-19 19:45:00,23.7,11.5,30.31,WNW,294,3.0,7.0,59,0.00,,---,0.00,VWS V12.07,2013-02-20 01:45:00,
2013-02-19 20:15:00,23.0,11.6,30.32,WNW,290,3.0,5.0,61,0.00,,---,0.00,VWS V12.07,2013-02-20 02:15:00,
2013-02-19 20:24:00,22.9,11.5,30.33,WNW,294,4.0,5.0,61,0.00,,---,0.00,VWS V12.07,2013-02-20 02:24:00,
2013-02-19 20:46:00,22.5,11.5,30.33,NW,322,3.0,5.0,62,0.00,,---,0.00,VWS V12.07,2013-02-20 02:46:00,
2013-02-19 21:05:00,21.9,11.6,30.34,NW,304,1.0,3.0,64,0.00,,---,0.00,VWS V12.07,2013-02-20 03:05:00,
2013-02-19 21:15:00,21.6,12.0,30.34,WNW,294,2.0,3.0,66,0.00,,---,0.00,VWS V12.07,2013-02-20 03:15:00,
2013-02-19 21:25:00,21.6,12.0,30.35,NW,304,2.0,3.0,66,0.00,,---,0.00,VWS V12.07,2013-02-20 03:25:00,
2013-02-19 21:35:00,21.0,12.1,30.35,North,6,0.0,0.0,68,0.00,,---,0.00,VWS V12.07,2013-02-20 03:35:00,
2013-02-19 21:45:00,20.4,11.9,30.36,NW,304,3.0,3.0,69,0.00,,---,0.00,VWS V12.07,2013-02-20 03:45:00,
2013-02-19 21:55:00,20.9,11.7,30.37,WNW,300,2.0,5.0,67,0.00,,---,0.00,VWS V12.07,2013-02-20 03:55:00,
2013-02-19 22:05:00,21.1,11.5,30.38,NW,307,2.0,5.0,66,0.00,,---,0.00,VWS V12.07,2013-02-20 04:05:00,
2013-02-19 22:15:00,20.9,11.3,30.37,NW,323,4.0,5.0,66,0.00,,---,0.00,VWS V12.07,2013-02-20 04:15:00,
2013-02-19 22:25:00,20.8,10.9,30.38,NNW,330,2.0,6.0,65,0.00,,---,0.00,VWS V12.07,2013-02-20 04:25:00,
2013-02-19 22:35:00,21.0,10.4,30.37,WNW,302,4.0,5.0,63,0.00,,---,0.00,VWS V12.07,2013-02-20 04:35:00,
2013-02-19 22:55:00,20.9,10.3,30.39,WNW,295,4.0,9.0,63,0.00,,---,0.00,VWS V12.07,2013-02-20 04:55:00,
2013-02-19 23:34:00,19.8,10.3,30.38,NW,318,1.0,6.0,66,0.00,,---,0.00,VWS V12.07,2013-02-20 05:34:00,